TimePDT,TemperatureF,Dew PointF,Humidity,Sea Level PressureIn,VisibilityMPH,Wind Direction,Wind SpeedMPH,Gust SpeedMPH,PrecipitationIn,Events,Conditions,WindDirDegrees,DateUTC
12:56 AM,23.0,16.0,74,30.33,10.0,Calm,Calm,-,N/A,,Clear,0,2012-10-06 07:56:00
1:56 AM,19.9,15.1,81,30.34,10.0,Calm,Calm,-,N/A,,Clear,0,2012-10-06 08:56:00
2:56 AM,18.0,14.0,84,30.33,10.0,Calm,Calm,-,N/A,,Clear,0,2012-10-06 09:56:00
3:56 AM,17.1,12.9,84,30.34,10.0,Calm,Calm,-,N/A,,Clear,0,2012-10-06 10:56:00
4:56 AM,16.0,12.0,84,30.34,10.0,Calm,Calm,-,N/A,,Clear,0,2012-10-06 11:56:00
5:56 AM,14.0,10.9,88,30.36,10.0,Calm,Calm,-,N/A,,Clear,0,2012-10-06 12:56:00
6:56 AM,14.0,10.9,88,30.38,10.0,Calm,Calm,-,N/A,,Clear,0,2012-10-06 13:56:00
7:56 AM,17.1,10.9,77,30.40,10.0,Calm,Calm,-,N/A,,Clear,0,2012-10-06 14:56:00
8:56 AM,28.0,16.0,61,30.38,10.0,Calm,Calm,-,N/A,,Clear,0,2012-10-06 15:56:00
9:56 AM,43.0,19.9,40,30.34,10.0,Calm,Calm,-,N/A,,Clear,0,2012-10-06 16:56:00
10:56 AM,54.0,12.9,20,30.31,10.0,Variable,3.5,-,N/A,,Clear,0,2012-10-06 17:56:00
11:56 AM,55.9,10.0,16,30.31,10.0,East,4.6,-,N/A,,Clear,80,2012-10-06 18:56:00
12:56 PM,57.9,10.9,16,30.29,10.0,Calm,Calm,-,N/A,,Clear,0,2012-10-06 19:56:00
1:56 PM,57.9,16.0,19,30.28,10.0,Variable,3.5,-,N/A,,Clear,0,2012-10-06 20:56:00
2:56 PM,57.9,16.0,19,30.28,10.0,Calm,Calm,-,N/A,,Clear,0,2012-10-06 21:56:00
3:56 PM,55.9,15.1,20,30.28,10.0,Variable,5.8,-,N/A,,Clear,0,2012-10-06 22:56:00
4:56 PM,53.1,14.0,21,30.29,10.0,Calm,Calm,-,N/A,,Clear,0,2012-10-06 23:56:00
5:56 PM,48.9,14.0,25,30.30,10.0,Calm,Calm,-,N/A,,Clear,0,2012-10-07 00:56:00
6:56 PM,41.0,15.1,35,30.31,10.0,Calm,Calm,-,N/A,,Clear,0,2012-10-07 01:56:00
7:56 PM,34.0,16.0,48,30.32,10.0,Calm,Calm,-,N/A,,Clear,0,2012-10-07 02:56:00
8:56 PM,30.0,15.1,54,30.30,10.0,Calm,Calm,-,N/A,,Clear,0,2012-10-07 03:56:00
9:56 PM,27.0,15.1,61,30.27,10.0,Calm,Calm,-,N/A,,Clear,0,2012-10-07 04:56:00
10:56 PM,27.0,14.0,58,30.23,10.0,Calm,Calm,-,N/A,,Clear,0,2012-10-07 05:56:00
11:56 PM,26.1,14.0,60,30.23,10.0,Calm,Calm,-,N/A,,Clear,0,2012-10-07 06:56:00